Date String (YYYY-MM-DD hh:mm:ss) UTC,Instrument flags,Ambient pressure (hPa),Sample flow (lpm),Bypass flow (lpm),Sample temperature (°C),Ambient temperature (°C),ASC tube jacket temperature (°C),LED temperature (°C),Box temperature (°C),Sample RH (%),Span deviation,Mass concentration (μg/m³),Mass concentration (μg/m³),Mass concentration (μg/m³)
DateTimeUTC,F1_M11,P_M11,Q1_M11,Q2_M11,T1_M11,T2_M11,T3_M11,T4_M11,T5_M11,U1_M11,ZSPAN_M11,X0_M11,X2_M11,X1_M11
2021-09-17 21:00:00,,0833.1,4.99,0.00,29.7,26.8,00.0,38.9,31.2,19.5,0001.5,0016.11,0008.64,0007.12
2021-09-17 21:01:00,,0833.1,5.00,0.00,29.6,27.2,00.0,38.8,31.2,19.7,0001.8,0017.11,0008.69,0007.15
2021-09-17 21:02:00,,0833.1,5.00,0.00,29.6,27.6,00.0,38.8,31.3,19.5,0001.6,0019.28,0008.79,0007.18
2021-09-17 21:03:00,,0833.1,4.99,0.00,29.7,27.9,00.0,38.8,31.4,19.5,0001.3,0019.88,0008.83,0007.22
2021-09-17 21:04:00,,0833.1,5.01,0.00,29.7,28.1,00.0,38.8,31.4,19.5,0000.9,0022.44,0008.84,0007.25
2021-09-17 21:05:00,,0833.1,5.00,0.00,29.7,28.3,00.0,38.8,31.5,19.6,0000.7,0023.01,0008.86,0007.27
2021-09-17 21:06:00,,0833.0,4.99,0.00,29.7,28.5,00.0,38.8,31.5,19.7,0000.5,0023.55,0008.88,0007.27
2021-09-17 21:07:00,,0833.0,5.00,0.00,29.8,28.6,00.0,38.8,31.6,19.8,0000.2,0024.04,0008.84,0007.27
2021-09-17 21:08:00,,0833.1,5.00,0.00,29.8,28.7,00.0,38.8,31.6,19.7,0000.2,0024.40,0008.87,0007.26
2021-09-17 21:09:00,,0833.1,4.99,0.00,29.8,28.8,00.0,38.8,31.7,19.8,-000.0,0026.05,0008.92,0007.24
2021-09-17 21:10:00,,0833.1,5.00,0.00,29.9,28.9,00.0,38.9,31.7,19.6,0000.1,0028.56,0008.94,0007.24
2021-09-17 21:11:00,,0833.0,5.01,0.00,29.9,29.0,00.0,38.9,31.7,19.6,0000.0,0028.88,0008.88,0007.21
2021-09-17 21:12:00,,0833.1,5.00,0.00,29.9,29.1,00.0,38.9,31.7,19.5,0000.2,0028.44,0008.80,0007.19
2021-09-17 21:13:00,,0833.1,5.00,0.00,29.9,29.1,00.0,38.9,31.7,19.4,0000.8,0028.19,0008.82,0007.19
2021-09-17 21:14:00,,0833.0,4.99,0.00,30.0,29.2,00.0,38.9,31.8,19.4,0001.1,0028.43,0008.82,0007.19
2021-09-17 21:15:00,,0833.0,5.01,0.00,29.9,27.9,00.0,38.9,31.4,19.4,0001.3,0026.08,0008.76,0007.18
2021-09-17 21:16:00,,0833.0,4.99,0.00,29.7,25.8,00.0,38.9,30.9,19.8,0001.8,0026.82,0008.83,0007.19
2021-09-17 21:17:00,,0833.0,5.01,0.00,29.6,25.5,00.0,38.8,30.7,20.1,0002.5,0026.38,0008.79,0007.22
2021-09-17 21:18:00,,0833.0,5.01,0.00,29.5,25.9,00.0,38.8,30.8,20.1,0002.5,0026.32,0008.78,0007.24
2021-09-17 21:19:00,,0833.1,5.00,0.00,29.4,26.4,00.0,38.7,30.9,20.0,0002.0,0026.19,0008.82,0007.28
2021-09-17 21:20:00,,0833.1,5.00,0.00,29.4,26.9,00.0,38.7,31.0,19.9,0001.8,0024.69,0008.86,0007.32
2021-09-17 21:21:00,,0833.1,4.99,0.00,29.4,27.3,00.0,38.7,31.1,19.8,0001.1,0022.70,0008.85,0007.35
2021-09-17 21:22:00,,0833.0,5.01,0.00,29.4,27.6,00.0,38.6,31.1,19.8,0001.2,0022.19,0008.87,0007.38
2021-09-17 21:23:00,,0833.0,5.00,0.00,29.5,27.8,00.0,38.6,31.2,19.7,0001.2,0021.61,0008.95,0007.42
2021-09-17 21:24:00,,0832.9,4.99,0.00,29.5,28.0,00.0,38.6,31.2,19.6,0000.7,0020.97,0008.95,0007.46
2021-09-17 21:25:00,,0832.9,5.01,0.00,29.5,28.2,00.0,38.6,31.3,19.8,0000.7,0020.15,0009.02,0007.48
2021-09-17 21:26:00,,0832.8,5.01,0.00,29.6,28.3,00.0,38.6,31.4,19.9,0000.6,0020.44,0009.09,0007.48
2021-09-17 21:27:00,,0832.8,5.01,0.00,29.6,28.5,00.0,38.6,31.4,19.7,0000.6,0019.11,0009.07,0007.51
2021-09-17 21:28:00,,0832.9,5.00,0.00,29.6,28.6,00.0,38.6,31.4,19.8,0000.3,0018.87,0009.13,0007.52
2021-09-17 21:29:00,,0832.8,5.00,0.00,29.6,28.7,00.0,38.7,31.5,19.8,0000.4,0019.73,0009.25,0007.55
2021-09-17 21:30:00,,0832.8,5.00,0.00,29.7,28.7,00.0,38.7,31.5,19.7,0000.8,0020.47,0009.27,0007.54
2021-09-17 21:31:00,,0832.7,5.01,0.00,29.7,28.8,00.0,38.7,31.5,20.0,0000.6,0021.70,0009.24,0007.53
2021-09-17 21:32:00,,0832.7,4.99,0.00,29.7,28.8,00.0,38.7,31.6,20.0,0000.7,0022.40,0009.27,0007.52
2021-09-17 21:33:00,,0832.7,4.99,0.00,29.8,28.9,00.0,38.7,31.6,19.9,0000.4,0023.43,0009.32,0007.53
2021-09-17 21:34:00,,0832.7,5.01,0.00,29.8,29.0,00.0,38.8,31.6,20.0,0000.4,0023.49,0009.29,0007.52
2021-09-17 21:35:00,,0832.8,5.00,0.00,29.8,29.0,00.0,38.8,31.7,19.8,0000.6,0023.16,0009.26,0007.51
2021-09-17 21:36:00,,0832.8,4.99,0.00,29.9,29.1,00.0,38.8,31.7,19.6,0000.6,0022.60,0009.25,0007.52
2021-09-17 21:37:00,,0832.7,5.01,0.00,29.9,29.1,00.0,38.8,31.8,19.6,0000.7,0022.89,0009.29,0007.55
2021-09-17 21:38:00,,0832.8,4.99,0.00,29.9,29.2,00.0,38.8,31.7,19.6,0001.0,0023.14,0009.31,0007.55
2021-09-17 21:39:00,,0832.8,5.00,0.00,29.9,28.0,00.0,38.8,31.4,19.8,0001.5,0024.00,0009.31,0007.54
2021-09-17 21:40:00,,0832.8,5.00,0.00,29.7,26.6,00.0,38.8,31.0,19.9,0001.7,0022.93,0009.28,0007.53
2021-09-17 21:41:00,,0832.8,4.99,0.00,29.7,26.6,00.0,38.8,31.0,20.2,0002.0,0022.33,0009.31,0007.55
2021-09-17 21:42:00,,0832.7,5.01,0.00,29.6,27.0,00.0,38.8,31.1,20.1,0001.8,0021.18,0009.32,0007.56
2021-09-17 21:43:00,,0832.7,4.99,0.00,29.6,27.4,00.0,38.7,31.2,19.9,0001.8,0020.69,0009.34,0007.60
2021-09-17 21:44:00,,0832.7,5.01,0.00,29.6,27.7,00.0,38.7,31.3,19.9,0001.7,0021.02,0009.39,0007.63
2021-09-17 21:45:00,,0832.8,5.00,0.00,29.6,27.9,00.0,38.7,31.3,20.1,0002.1,0021.82,0009.42,0007.65
2021-09-17 21:46:00,,0832.8,4.99,0.00,29.6,28.2,00.0,38.7,31.4,20.1,0002.2,0021.84,0009.47,0007.67
2021-09-17 21:47:00,,0832.8,5.00,0.00,29.7,28.3,00.0,38.7,31.4,20.0,0002.3,0021.66,0009.49,0007.68
2021-09-17 21:48:00,,0832.9,5.00,0.00,29.7,28.5,00.0,38.7,31.5,20.0,0002.3,0021.76,0009.50,0007.71
2021-09-17 21:49:00,,0832.8,4.99,0.00,29.7,28.6,00.0,38.7,31.5,19.9,0002.3,0023.04,0009.54,0007.74
2021-09-17 21:50:00,,0832.8,5.01,0.00,29.7,28.7,00.0,38.8,31.5,19.8,0002.1,0022.21,0009.57,0007.80
2021-09-17 21:51:00,,0832.8,4.99,0.00,29.7,28.8,00.0,38.8,31.6,19.8,0001.5,0022.00,0009.58,0007.85
2021-09-17 21:52:00,,0832.8,5.02,0.00,29.8,28.9,00.0,38.8,31.6,19.8,0001.4,0021.57,0009.55,0007.89
2021-09-17 21:53:00,,0832.7,5.00,0.00,29.8,28.9,00.0,38.8,31.7,19.8,0001.8,0022.23,0009.63,0007.95
2021-09-17 21:54:00,,0832.7,5.00,0.00,29.9,29.0,00.0,38.8,31.7,19.8,0001.9,0023.08,0009.64,0007.97
2021-09-17 21:55:00,,0832.7,5.02,0.00,29.9,29.1,00.0,38.8,31.8,19.7,0002.0,0022.69,0009.60,0007.99
2021-09-17 21:56:00,,0832.7,4.99,0.00,29.9,29.1,00.0,38.9,31.8,19.9,0001.7,0022.02,0009.69,0008.02
2021-09-17 21:57:00,,0832.7,5.01,0.00,29.9,28.3,00.0,38.9,31.5,19.8,0001.5,0022.09,0009.72,0008.05
2021-09-17 21:58:00,,0832.8,5.00,0.00,29.7,26.1,00.0,38.8,30.9,19.9,0001.3,0023.50,0009.81,0008.13
2021-09-17 21:59:00,,0832.7,4.99,0.00,29.5,25.5,00.0,38.8,30.7,20.3,0001.2,0023.62,0009.83,0008.17
